Theta_e
321 320 320 316 315 312 311 311 310 306 305 304 305 306 306 305 303 304 304 304 302 302
322 321 318 318 316 315 313 313 311 307 304 303 303 302 303 302 301 301 300 299 299 299
321 318 317 315 313 313 312 309 307 304 302 300 300 301 300 299 299 298 297 297 297 297
311 309 308 306 305 304 303 303 301 300 299 299 299 299 299 298 297 297 297 296 296 296
300 298 298 297 298 300 298 298 298 298 298 297 297 297 297 296 296 296 295 296 296 296
296 296 295 295 296 297 297 297 297 297 296 295 295 295 296 296 295 296 296 296 295 296
294 294 294 294 294 294 295 295 295 295 295 295 295 295 295 295 295 295 295 295 295 295
294 295 295 295 295 295 295 295 295 295 295 295 295 296 296 296 295 295 296 296 296 296
295 295 294 294 294 295 294 294 295 295 295 295 295 299 300 300 298 298 297 297 297 297
294 294 294 294 294 294 294 294 294 294 294 294 294 298 299 300 297 295 294 294 293 293
294 293 293 294 293 293 294 294 294 294 293 293 293 296 298 298 295 294 293 293 293 293
294 293 293 293 293 293 293 293 292 292 292 291 291 293 295 295 293 292 292 293 293 293
293 293 292 292 292 292 291 291 290 289 289 289 289 291 294 293 292 291 291 292 292 294
291 291 291 290 290 289 289 288 287 288 289 289 290 291 293 294 291 291 290 290 291 292
Wind_Speed
7 4 2 4 7 6 7 7 8 6 3 3 2 5 6 5 4 5 5 6 4 4
7 7 5 7 5 5 6 7 4 3 4 5 1 3 6 5 6 6 5 5 5 4
5 5 6 6 6 4 4 4 6 6 5 7 5 6 7 6 6 6 4 4 5 4
7 7 7 6 5 5 6 6 7 8 8 8 7 6 6 6 6 6 6 4 4 4
10 10 10 9 9 9 9 8 8 8 8 6 6 5 5 6 5 6 5 5 5 6
12 12 12 11 11 11 11 10 9 8 7 5 4 4 3 3 4 4 5 5 6 6
12 12 11 11 11 11 10 10 8 7 6 5 4 2 2 2 3 4 5 5 7 7
11 11 11 11 10 10 10 8 7 6 6 5 3 1 2 3 4 5 6 6 7 8
10 10 9 9 9 9 8 7 6 6 5 4 3 7 7 6 4 5 7 8 8 7
9 9 8 7 7 6 5 4 4 4 4 4 4 8 9 9 4 4 5 6 6 7
7 7 5 5 5 4 3 3 3 3 4 5 4 9 9 11 5 7 8 8 9 10
5 5 4 4 4 3 3 3 4 5 5 5 5 9 11 12 9 10 11 10 11 11
5 5 4 4 4 3 3 3 3 3 3 5 6 9 14 13 9 11 9 11 11 15
5 5 4 3 2 3 2 2 2 3 4 5 7 9 14 14 9 7 8 7 6 6
Wind_Direction
124 166 87 156 151 160 174 186 189 217 177 127 173 183 165 155 151 159 151 155 151 139
176 138 137 147 145 159 162 163 171 174 121 104 305 161 149 141 139 139 138 132 129 134
133 103 112 111 116 128 130 131 153 143 135 115 155 143 136 135 136 131 120 129 158 148
77 74 79 84 94 109 108 122 120 115 123 137 142 138 135 132 140 135 144 154 167 164
72 70 71 73 78 94 94 92 107 117 115 121 119 127 141 148 150 154 169 178 191 198
77 77 78 80 82 84 91 88 87 91 97 98 95 105 115 152 166 185 208 212 219 223
81 82 81 78 74 74 75 77 75 73 76 78 92 102 133 172 216 239 252 248 242 244
83 83 83 80 77 75 70 69 66 67 59 48 38 12 278 254 262 265 266 258 254 253
82 79 75 76 74 72 71 68 64 56 46 27 9 344 329 316 287 282 269 272 275 270
82 77 71 74 76 73 67 63 50 30 6 339 326 319 314 305 338 325 318 303 295 290
108 113 118 114 109 105 74 43 15 350 347 331 322 328 325 323 328 312 304 297 293 284
113 108 97 90 78 58 26 8 8 348 339 329 321 327 322 316 307 301 300 296 290 283
83 82 86 65 53 39 16 353 340 337 329 309 309 317 316 313 298 296 293 290 283 279
85 90 85 90 59 26 16 355 335 317 320 311 303 304 305 303 299 292 292 295 295 279